Location: *
(44.3925°N, 5.4708°E)
Time: 16:04:33
(UTC+00:00)

CZ-4 R/B - Pass Details

Date: 18 September 2019
Orbit: 531 x 599 km, 97.8° (Epoch: 21 October)

Event Time Altitude Azimuth Distance (km) Brightness Sun altitude
Rises 18:05:53 0° 175° (S) 2,668 4.7 -4.7°
Reaches altitude 10° 18:08:00 10° 180° (S) 1,788 3.9 -5.1°
Maximum altitude 18:11:48 57° 259° (W) 640 2.1 -5.8°
Drops below altitude 10° 18:15:42 10° 339° (NNW) 1,832 4.4 -6.5°
Sets 18:17:53 0° 344° (NNW) 2,741 5.2 -6.9°
